Weather in Naujoji Akmenė

Lithuania     56°19′19″N   22°52′39″E
temp.,
°C
wind,
m/s
gust,
m/s
humid.,
%
clouds,
%
prec.,
mm/h
press.,
hPa
HPBL,
m
28 july, wed
wed2800:00+18sw359531 0.0 101097
03:00+16wsw35965 0.0 1010119
06:00+16wsw369736 0.0 1010135
09:00+21sw458534 0.0 1010394
12:00+25wsw4556100 0.0 10101319
15:00+26sw565596 1.0 10091114
18:00+26wsw56484 0.0 10091938
21:00+21w226587 0.0 100816
29 july, thu
thu2900:00+18wsw1172100 0.0 100811
03:00+16sw3686100 0.1 1008132
06:00+15sw389713 0.0 1007195
09:00+20wsw57722 0.0 1007710
12:00+24wsw575290 0.0 10061870
15:00+23wsw695659 0.1 10061137
18:00+23wsw7105169 0.0 10061971
21:00+19wsw6106123 0.0 1006653
30 july, fri
fri3000:00+18sw5107082 0.0 1007865
03:00+14ssw5138827 0.1 1006359
06:00+14sw615815 0.1 1005603
09:00+18sw8136719 0.1 10041357
12:00+21wsw10135253 0.2 10031916
15:00+21wsw11145370 0.4 10032111
18:00+20wsw10165662 0.6 10021811
21:00+18wsw9166226 0.0 10021319
31 july, sat
sat3100:00+18wsw9167391 0.0 10011150
03:00+17wsw7148231 0.1 1002830
06:00+16wsw6129021 0.1 1003563
09:00+20wsw797168 0.1 10031032
12:00+24sw684858 0.0 10031640
15:00+26ssw694156 0.0 10032213
18:00+19wsw6118059 0.5 1002568
21:00+17wsw488796 1.3 1002285
1 august, sun
sun100:00+15sw512900 0.1 1002413
03:00+16ssw61389100 0.1 1002751
06:00+16sw61392100 1.0 1002718
09:00+18wsw711805 2.0 10031262
12:00+21wsw9115259 0.1 10051846
15:00+21wsw7955100 0.1 10061767
18:00+20w695459 0.0 10061552
21:00+17w367084 0.0 1006144